Weather History for Hyannis, MA

Change the Weather History Date:

Tuesday, December 10, 2013

  Actual Average Record
Temperature  
Mean Temperature 32 °F -  
Max Temperature 37 °F 45 °F 65 °F (1946)
Min Temperature 27 °F 27 °F 8 °F (1934)
Degree Days  
Heating Degree Days 32    
Moisture  
Dew Point 30 °F    
Average Humidity 88    
Maximum Humidity 96    
Minimum Humidity 72    
Precipitation  
Precipitation 0.14 in - - ()
Sea Level Pressure  
Sea Level Pressure 29.86 in    
Wind  
Wind Speed 7 mph (WNW)    
Max Wind Speed 13 mph    
Max Gust Speed 23 mph    
Visibility 5 miles    
Events Fog , Snow    
Averages and records for this station are not official NWS values.
T = Trace of Precipitation, MM = Missing Value Source: NWS Daily Summary

Daily Weather History Graph

Daily Weather History Graph

Search for Another Location

Airport:

Trip Planner

Search our weather history database for the weather conditions in past years. The results will help you decide how hot, cold, wet, or windy it might be!

Date:

Astronomy

Dec. 10, 2013 Rise Set
Actual Time 6:57 AM EST 4:10 PM EST
Civil Twilight 6:25 AM EST 4:42 PM EST
Nautical Twilight 5:51 AM EST 5:16 PM EST
Astronomical Twilight 5:17 AM EST 5:50 PM EST
Moon 12:14 PM EST (12/10) 12:07 AM EST (12/10)
Length of Visible Light 10h 16m
Length of Day
9h 13m
First Quarter, 61% of the Moon is Illuminated
Dec 10
First Quarter
Dec 17
Full
Dec 25
Last Quarter
Jan 1
New
Jan 7
First Quarter

Hourly Weather History & Observations

Time (EST) Temp. Windchill Dew Point Humidity Pressure Visibility Wind Dir Wind Speed Gust Speed Precip Events Conditions
12:56 AM 37.0 °F 30.4 °F 35.1 °F 93% 29.91 in 10.0 mi WSW 9.2 mph - N/A   Clear
1:56 AM 37.0 °F 31.0 °F 34.0 °F 89% 29.91 in 10.0 mi West 8.1 mph - N/A   Clear
2:56 AM 36.0 °F 31.1 °F 34.0 °F 93% 29.91 in 10.0 mi WSW 5.8 mph - N/A   Clear
3:56 AM 36.0 °F 29.0 °F 33.1 °F 89% 29.90 in 10.0 mi West 9.2 mph - N/A   Clear
4:56 AM 35.1 °F 31.0 °F 33.1 °F 92% 29.92 in 10.0 mi West 4.6 mph - N/A   Clear
5:56 AM 37.0 °F 32.4 °F 32.0 °F 82% 29.94 in 10.0 mi West 5.8 mph - N/A   Clear
6:56 AM 37.0 °F - 32.0 °F 82% 29.90 in 10.0 mi Calm Calm - N/A   Clear
7:56 AM 37.0 °F 34.5 °F 32.0 °F 82% 29.93 in 10.0 mi NW 3.5 mph - N/A   Clear
8:56 AM 37.9 °F 35.5 °F 33.1 °F 83% 29.94 in 10.0 mi West 3.5 mph - N/A   Scattered Clouds
9:56 AM 37.9 °F 32.1 °F 30.9 °F 76% 29.91 in 10.0 mi NNW 8.1 mph - N/A   Overcast
10:47 AM 35.6 °F 28.6 °F 32.0 °F 87% 29.90 in 2.5 mi NW 9.2 mph - 0.01 in Snow Light Snow
10:56 AM 34.0 °F 28.0 °F 32.0 °F 92% 29.90 in 2.0 mi NNW 6.9 mph - 0.01 in Snow Light Snow
11:02 AM 33.8 °F 27.0 °F 32.0 °F 93% 29.89 in 1.5 mi NW 8.1 mph - 0.00 in Snow Light Snow
11:11 AM 33.8 °F 28.6 °F 32.0 °F 93% 29.88 in 0.8 mi NW 5.8 mph - 0.00 in Snow Light Snow
11:18 AM 33.8 °F 27.7 °F 32.0 °F 93% 29.87 in 0.5 mi NNW 6.9 mph - 0.01 in Fog , Snow Snow
11:56 AM 33.1 °F 28.7 °F 32.0 °F 96% 29.83 in 0.8 mi NNW 4.6 mph - 0.03 in Snow Light Snow
12:06 PM 33.8 °F 29.6 °F 32.0 °F 93% 29.82 in 1.0 mi NW 4.6 mph - 0.00 in Snow Light Snow
12:56 PM 33.1 °F 27.7 °F 32.0 °F 96% 29.79 in 1.0 mi NW 5.8 mph - 0.02 in Snow Light Snow
1:18 PM 33.8 °F 29.6 °F 32.0 °F 93% 29.79 in 0.5 mi WNW 4.6 mph - 0.01 in Fog , Snow Snow
1:56 PM 33.1 °F 28.7 °F 32.0 °F 96% 29.78 in 1.0 mi WNW 4.6 mph - 0.02 in Snow Light Snow
2:09 PM 33.8 °F 27.7 °F 30.2 °F 87% 29.80 in 1.2 mi WNW 6.9 mph - 0.00 in Snow Light Snow
2:21 PM 33.8 °F 28.6 °F 30.2 °F 87% 29.79 in 0.8 mi NW 5.8 mph - 0.01 in Snow Light Snow
2:34 PM 33.8 °F 27.7 °F 30.2 °F 87% 29.79 in 1.0 mi NW 6.9 mph - 0.02 in Snow Light Snow
2:49 PM 33.8 °F 28.6 °F 30.2 °F 87% 29.79 in 0.8 mi NNW 5.8 mph - 0.03 in Snow Light Snow
2:56 PM 33.1 °F 27.7 °F 30.9 °F 92% 29.79 in 0.5 mi NNW 5.8 mph - 0.04 in Fog , Snow Snow
3:19 PM 33.8 °F 27.0 °F 30.2 °F 87% 29.79 in 1.2 mi NW 8.1 mph - 0.00 in Snow Light Snow
3:43 PM 33.8 °F 28.6 °F 30.2 °F 87% 29.79 in 2.0 mi NW 5.8 mph - 0.00 in Snow Light Snow
3:56 PM 33.1 °F 28.7 °F 30.9 °F 92% 29.80 in 2.0 mi WNW 4.6 mph - 0.01 in Snow Light Snow
4:04 PM 33.8 °F 27.7 °F 30.2 °F 87% 29.79 in 1.5 mi WNW 6.9 mph - 0.00 in Snow Light Snow
4:17 PM 33.8 °F 28.6 °F 30.2 °F 87% 29.81 in 1.8 mi NW 5.8 mph - 0.00 in Snow Light Snow
4:28 PM 33.8 °F 28.6 °F 30.2 °F 87% 29.81 in 1.5 mi WNW 5.8 mph - 0.01 in Snow Light Snow
4:45 PM 32.0 °F 27.5 °F 30.2 °F 93% 29.82 in 2.5 mi WNW 4.6 mph - 0.01 in Snow Light Snow
4:52 PM 32.0 °F 26.4 °F 30.2 °F 93% 29.82 in 4.0 mi WNW 5.8 mph - 0.01 in Snow Light Snow
4:56 PM 32.0 °F 27.5 °F 30.0 °F 92% 29.83 in 4.0 mi West 4.6 mph - 0.01 in Snow Light Snow
5:02 PM 32.0 °F 25.6 °F 30.2 °F 93% 29.82 in 2.5 mi WNW 6.9 mph - 0.00 in Snow Light Snow
5:10 PM 32.0 °F 26.4 °F 30.2 °F 93% 29.83 in 2.5 mi WNW 5.8 mph - 0.00 in Snow Light Snow
5:51 PM 32.0 °F 26.4 °F 30.2 °F 93% 29.84 in 4.0 mi West 5.8 mph - 0.00 in Snow Light Snow
5:52 PM 32.0 °F 26.4 °F 30.0 °F 92% 29.84 in 4.0 mi West 5.8 mph - 0.00 in Snow Light Snow
6:56 PM 32.0 °F 26.4 °F 30.0 °F 92% 29.85 in 5.0 mi West 5.8 mph - 0.00 in Snow Light Snow
7:10 PM 33.8 °F 27.0 °F 30.2 °F 87% 29.85 in 6.0 mi WNW 8.1 mph - 0.00 in   Overcast
7:56 PM 33.1 °F 23.9 °F 28.9 °F 85% 29.87 in 10.0 mi WNW 12.7 mph 18.4 mph 0.00 in   Overcast
8:27 PM 32.0 °F 23.6 °F 28.4 °F 87% 29.88 in 10.0 mi WNW 10.4 mph - N/A   Overcast
8:56 PM 30.9 °F 21.2 °F 25.0 °F 79% 29.89 in 10.0 mi NW 12.7 mph 23.0 mph N/A   Overcast
9:56 PM 30.0 °F 23.2 °F 23.0 °F 75% 29.93 in 10.0 mi WNW 6.9 mph - N/A   Clear
10:56 PM 28.9 °F 18.6 °F 21.0 °F 72% 29.97 in 10.0 mi WNW 12.7 mph 19.6 mph N/A   Clear
11:56 PM 27.0 °F 17.3 °F 19.0 °F 72% 30.01 in 10.0 mi WNW 10.4 mph 16.1 mph N/A   Clear